Wind_Speed
14 5 19 32 16 5 4 4 6 4 8 7 15 7 18 27 25 29 31 34 38 40 41 40 41 39 40 39 38 36 35 34 32 29 28 28 25 21 19 16 14 11 10 6
5 18 18 5 8 10 7 5 6 5 6 10 11 14 15 18 27 34 33 33 37 39 40 43 44 43 42 43 42 39 39 37 36 33 31 30 29 28 23 20 17 15 13 11
10 7 16 10 11 13 14 16 10 8 3 10 8 6 8 13 16 22 31 36 35 41 42 46 46 51 47 46 45 44 43 40 41 38 35 34 31 32 30 28 23 18 15 14
13 21 12 16 16 16 14 16 14 13 5 4 8 5 8 13 18 17 31 36 35 39 38 40 44 49 51 53 49 46 43 43 43 43 38 36 34 37 37 33 28 22 18 16
16 14 17 16 23 19 14 8 10 10 3 5 7 4 7 17 19 22 26 35 38 41 42 47 49 53 50 53 53 51 48 44 43 47 42 36 34 34 39 36 30 27 22 20
11 18 13 25 13 13 5 5 4 1 3 9 13 10 5 12 26 24 28 38 36 39 42 47 51 46 51 51 56 55 52 50 45 47 45 40 35 33 33 34 33 29 26 26
10 16 17 9 16 9 12 8 3 4 6 11 7 10 13 17 24 29 30 43 45 44 41 43 47 52 54 54 57 58 55 53 49 50 48 44 38 33 31 31 31 30 27 26
5 8 12 8 14 11 11 11 6 9 5 6 7 7 6 15 30 42 45 44 32 34 38 42 51 53 54 54 57 60 58 55 52 51 51 46 41 35 33 32 31 30 29 25
5 8 14 20 15 17 11 17 11 5 3 2 6 5 6 7 14 15 29 25 36 42 41 47 44 46 52 53 57 60 59 55 54 53 53 49 44 39 36 34 30 31 29 25
4 7 7 13 10 17 20 9 8 5 8 8 4 5 7 11 15 13 16 27 34 42 42 40 45 47 48 54 57 58 59 54 53 53 55 50 43 39 37 36 33 32 30 27
2 3 9 10 7 23 11 11 5 6 4 11 1 7 7 12 16 13 16 31 38 40 48 49 47 48 49 51 55 58 58 57 56 54 54 52 45 41 38 38 36 33 31 30
2 1 7 11 17 18 11 11 8 11 12 3 3 14 5 10 13 13 21 30 36 45 49 48 49 51 49 51 52 57 57 57 56 54 54 51 47 43 41 39 37 35 34 32
1 1 6 7 2 2 4 13 16 9 4 10 15 11 3 5 5 16 19 30 33 41 47 45 41 47 53 52 53 55 55 56 55 54 54 52 50 47 43 39 38 36 36 35
5 3 7 7 7 9 10 17 9 11 13 6 19 5 10 12 9 8 18 27 34 45 48 44 43 49 52 55 55 54 54 54 52 53 53 53 52 48 43 40 38 37 36 36
2 5 10 16 25 20 19 22 22 11 10 17 14 10 13 11 9 9 21 33 30 44 44 44 46 48 50 49 50 52 52 52 51 50 52 52 49 45 41 38 37 36 36 36
5 3 4 16 23 20 19 18 16 19 13 7 6 13 8 2 3 13 20 24 25 37 42 47 48 50 52 54 55 54 53 50 50 48 49 47 45 43 41 38 36 35 35 34
5 3 2 7 5 4 6 7 12 4 14 4 8 4 11 5 11 14 21 10 26 35 44 46 49 53 55 57 56 54 51 48 51 50 48 49 47 44 40 37 37 37 36 35
5 4 3 5 7 7 10 10 8 22 20 18 12 10 2 12 16 31 30 17 4 25 39 48 48 52 53 55 55 51 50 50 50 49 46 45 45 43 41 40 38 37 36 37
11 2 3 3 4 5 1 7 9 5 19 21 19 15 2 21 29 25 32 26 20 14 25 33 36 37 36 40 42 45 47 47 47 46 44 43 41 39 39 38 36 34 35 35
12 9 4 3 1 4 3 18 24 11 10 21 23 18 14 10 9 5 25 28 31 25 21 25 32 30 31 34 36 43 44 42 42 41 41 40 38 36 36 32 31 29 30 29
4 4 6 8 4 3 8 22 16 7 1 20 25 25 23 12 8 13 24 31 33 37 35 30 30 30 28 32 30 32 34 36 37 37 36 36 35 35 35 33 32 31 31 31
3 2 0 3 2 2 19 11 7 3 4 12 23 29 27 16 22 26 29 31 32 35 37 38 37 32 25 21 27 27 28 29 29 30 29 30 32 33 34 34 34 34 34 35
4 4 3 4 3 4 13 7 11 14 12 19 27 30 32 15 22 24 26 28 29 29 29 30 32 32 31 30 28 27 19 18 19 19 22 23 23 25 27 30 31 33 33 33
7 12 3 7 7 12 21 6 5 18 17 20 25 21 24 21 17 19 21 22 24 24 24 23 24 26 26 23 22 21 18 14 13 13 11 10 12 15 20 24 26 28 30 31
5 9 7 4 8 26 2 22 25 21 20 23 23 19 15 19 18 14 16 17 18 20 20 18 18 20 21 18 16 13 10 7 5 6 8 8 9 11 13 16 20 25 27 30
9 2 1 2 11 11 21 27 21 21 21 20 23 23 13 10 17 11 10 13 15 15 15 15 15 14 15 13 12 9 6 3 1 4 10 13 14 15 16 18 22 26 28 30
Wind_Direction
192 166 202 211 207 174 182 213 196 213 191 145 197 199 189 183 186 180 192 194 199 201 199 197 206 206 205 206 203 200 201 202 201 200 201 206 212 209 208 207 204 217 229 231
143 216 217 204 191 204 231 250 258 293 183 187 196 213 196 188 200 187 193 198 203 204 202 201 207 207 208 208 209 209 208 211 209 208 208 211 212 217 221 222 213 216 222 228
197 238 191 201 200 191 211 222 236 232 111 203 173 234 173 198 208 201 208 207 207 205 204 203 206 207 207 211 209 213 216 219 217 215 215 217 219 223 224 223 221 218 220 224
223 230 198 199 216 195 214 210 222 245 147 199 167 226 209 204 214 211 211 210 208 211 213 210 209 208 207 214 214 215 216 222 220 218 219 222 226 224 225 227 227 225 225 226
221 198 223 206 211 199 227 165 200 234 197 152 234 123 253 197 221 222 218 212 209 211 212 212 211 212 204 208 214 215 219 221 220 219 221 223 227 229 228 229 230 228 227 232
236 284 207 222 217 213 170 188 194 255 146 245 215 209 255 193 220 224 226 221 212 209 212 217 218 213 209 207 214 216 218 221 222 221 222 224 228 231 230 230 229 226 228 231
329 250 257 244 209 213 199 141 226 245 208 235 211 196 218 210 214 217 219 216 215 211 210 212 210 210 212 209 212 214 216 221 224 223 223 226 230 234 235 231 225 222 220 222
13 271 231 237 216 192 208 184 168 194 189 218 202 213 233 205 218 221 226 215 211 218 212 211 209 208 211 210 211 215 217 220 224 226 226 229 231 234 235 232 229 224 221 222
349 267 317 300 254 198 197 208 195 103 350 176 222 249 297 205 237 222 228 204 204 216 215 219 214 209 210 211 213 218 219 220 224 226 227 229 232 234 234 231 230 227 225 223
39 303 284 305 300 241 209 159 189 218 191 225 269 213 205 190 229 213 220 208 206 207 215 215 221 215 212 214 217 220 222 222 224 226 227 229 233 235 235 233 230 228 228 228
160 184 287 334 227 220 211 203 200 159 193 224 235 248 205 195 207 200 219 211 210 206 212 214 214 216 212 215 215 218 221 222 223 225 227 229 233 236 236 236 232 231 230 229
91 296 277 250 277 300 298 216 170 203 215 245 198 244 250 212 197 195 213 215 213 211 212 213 212 212 205 213 215 217 222 223 223 227 227 230 234 236 237 237 236 233 233 231
270 82 305 290 260 320 254 203 210 211 116 209 223 236 233 254 256 208 201 220 220 217 214 211 202 200 205 205 215 220 222 226 226 226 229 232 234 236 237 238 239 237 235 234
136 231 220 269 300 320 300 318 327 206 219 193 232 213 260 271 260 249 252 231 233 217 215 202 194 197 203 205 213 220 225 228 229 228 231 232 233 236 238 239 240 241 240 237
251 236 247 256 265 272 272 275 285 287 220 208 235 223 230 229 240 278 301 290 250 206 200 192 190 194 200 202 208 221 227 229 227 230 232 233 234 234 236 236 238 240 241 241
221 258 281 273 253 238 247 258 256 250 246 210 200 239 222 307 340 342 313 267 210 194 189 189 191 193 197 206 213 220 224 227 229 230 230 231 232 232 232 233 235 238 240 242
214 181 263 266 307 274 221 334 293 140 42 336 209 289 311 59 54 17 350 280 212 192 189 187 190 196 203 211 217 219 223 224 229 229 228 227 229 230 230 231 234 235 237 240
216 141 235 269 297 171 151 30 342 81 48 18 352 294 141 97 79 41 21 24 205 212 194 193 194 200 204 211 216 217 222 225 227 229 230 230 230 232 234 235 237 240 241 243
203 180 269 264 315 102 99 355 340 2 43 19 4 23 12 119 65 27 20 39 69 148 188 192 194 198 196 204 209 214 217 220 224 229 232 232 232 233 236 238 241 243 246 249
195 205 267 309 203 166 267 310 306 229 47 354 356 17 8 44 72 342 17 45 76 103 135 173 191 193 194 204 212 213 215 218 225 231 234 235 236 239 240 242 244 246 248 251
172 211 221 233 251 182 324 320 315 66 324 339 1 3 14 50 71 49 54 59 71 86 102 125 148 162 181 198 204 212 219 227 232 234 233 239 242 243 245 248 249 250 253 255
65 331 275 249 93 98 346 351 75 174 351 360 4 8 0 44 57 55 53 53 61 75 88 97 106 114 118 155 189 198 208 220 228 237 241 241 245 249 252 255 257 256 257 259
62 5 284 44 277 289 358 25 91 55 18 1 359 8 15 27 49 49 48 47 49 60 74 84 94 100 106 114 126 137 150 189 201 206 220 234 245 249 251 253 256 256 258 260
7 21 7 332 9 320 314 343 52 352 346 343 347 356 13 19 31 41 41 41 42 47 59 75 85 87 89 96 113 119 129 142 152 150 159 183 210 229 239 246 248 250 253 256
7 307 308 280 321 326 10 337 339 344 338 342 339 346 355 1 3 16 23 27 31 37 47 60 71 76 80 86 93 101 115 134 172 200 210 221 231 235 241 245 246 248 252 254
336 228 14 273 314 300 286 324 335 328 328 338 334 327 333 348 2 2 19 23 15 20 28 43 51 63 69 79 81 77 71 68 30 276 264 260 258 256 254 253 250 249 252 255
Height
1461 1470 1465 1451 1462 1469 1471 1474 1475 1467 1465 1473 1476 1477 1476 1481 1489 1489 1493 1496 1500 1502 1507 1514 1519 1524 1527 1533 1537 1542 1547 1551 1556 1560 1564 1567 1570 1573 1576 1578 1580 1582 1585 1586
1462 1458 1451 1460 1466 1470 1472 1477 1476 1466 1462 1468 1471 1473 1473 1479 1477 1478 1486 1493 1494 1499 1503 1509 1513 1519 1523 1527 1533 1538 1542 1548 1552 1557 1561 1565 1569 1572 1575 1577 1579 1582 1584 1586
1452 1445 1452 1457 1462 1468 1470 1473 1473 1472 1463 1461 1466 1478 1478 1478 1481 1482 1485 1486 1491 1492 1496 1500 1505 1510 1516 1521 1526 1532 1537 1542 1548 1552 1558 1562 1566 1569 1572 1574 1577 1580 1583 1585
1445 1440 1445 1451 1455 1457 1473 1456 1462 1465 1476 1487 1462 1503 1481 1475 1474 1473 1474 1479 1484 1489 1495 1499 1503 1504 1508 1514 1521 1527 1532 1537 1543 1548 1552 1556 1560 1563 1566 1570 1575 1578 1581 1583
1432 1434 1439 1446 1440 1447 1449 1451 1459 1461 1468 1476 1468 1484 1475 1466 1471 1467 1464 1467 1474 1481 1488 1490 1492 1497 1500 1508 1515 1521 1527 1533 1538 1543 1548 1553 1556 1559 1563 1568 1573 1576 1578 1581
1436 1429 1427 1427 1435 1441 1443 1451 1457 1460 1474 1485 1467 1469 1475 1463 1457 1454 1455 1460 1465 1472 1478 1483 1489 1497 1498 1501 1508 1514 1520 1527 1533 1538 1544 1548 1552 1555 1560 1564 1568 1572 1575 1577
1446 1426 1427 1426 1435 1437 1443 1461 1489 1495 1490 1471 1453 1467 1452 1440 1438 1439 1439 1445 1451 1462 1468 1474 1481 1485 1490 1494 1499 1507 1513 1520 1526 1532 1538 1543 1547 1552 1557 1561 1565 1568 1571 1572
1477 1444 1424 1420 1425 1435 1440 1451 1478 1493 1487 1470 1449 1459 1443 1424 1425 1424 1426 1435 1453 1463 1463 1465 1467 1473 1480 1487 1492 1499 1505 1512 1519 1525 1532 1538 1543 1547 1552 1556 1560 1564 1567 1570
1476 1459 1433 1429 1418 1421 1429 1438 1437 1459 1464 1465 1440 1438 1422 1417 1417 1419 1423 1436 1441 1448 1453 1456 1462 1467 1472 1479 1483 1490 1497 1505 1512 1518 1526 1531 1537 1542 1546 1551 1555 1559 1563 1566
1480 1474 1445 1432 1421 1412 1414 1422 1446 1453 1471 1474 1453 1441 1435 1421 1415 1414 1416 1422 1429 1434 1441 1450 1455 1460 1464 1470 1476 1482 1491 1497 1504 1512 1519 1525 1531 1536 1541 1546 1550 1553 1557 1561
1481 1479 1451 1444 1419 1409 1412 1417 1420 1429 1446 1448 1463 1438 1409 1408 1404 1407 1406 1409 1414 1422 1428 1434 1442 1450 1456 1463 1469 1475 1483 1491 1498 1505 1512 1519 1524 1530 1536 1539 1544 1548 1552 1556
1479 1477 1464 1446 1413 1419 1423 1410 1419 1423 1441 1445 1443 1421 1394 1395 1395 1395 1398 1400 1405 1409 1415 1424 1431 1441 1450 1454 1461 1467 1475 1483 1491 1498 1505 1512 1518 1523 1528 1532 1537 1542 1546 1551
1481 1474 1470 1431 1417 1409 1414 1397 1396 1407 1422 1433 1431 1412 1392 1394 1392 1393 1395 1395 1399 1402 1408 1416 1426 1436 1440 1446 1453 1460 1468 1475 1484 1491 1498 1505 1511 1515 1520 1526 1530 1535 1539 1545
1478 1475 1474 1458 1442 1452 1442 1427 1414 1403 1413 1418 1402 1409 1398 1391 1391 1388 1386 1389 1391 1393 1398 1407 1415 1425 1432 1437 1445 1453 1461 1469 1477 1484 1491 1497 1503 1508 1514 1519 1524 1528 1532 1538
1477 1469 1468 1465 1453 1449 1442 1433 1422 1425 1396 1400 1396 1405 1392 1388 1386 1381 1380 1374 1374 1378 1386 1397 1405 1415 1425 1433 1441 1448 1455 1462 1470 1477 1484 1490 1496 1503 1508 1513 1516 1521 1525 1529
1475 1466 1465 1454 1437 1434 1432 1417 1411 1408 1394 1391 1391 1390 1375 1378 1380 1380 1375 1367 1369 1371 1378 1387 1397 1407 1416 1424 1432 1440 1448 1455 1462 1470 1477 1484 1490 1495 1499 1505 1509 1513 1517 1521
1471 1462 1466 1451 1416 1410 1418 1413 1404 1386 1399 1396 1397 1389 1384 1383 1384 1383 1373 1365 1366 1367 1372 1380 1390 1399 1407 1417 1425 1433 1440 1449 1455 1462 1470 1476 1482 1487 1492 1497 1502 1505 1509 1514
1458 1461 1464 1453 1421 1406 1411 1410 1404 1397 1405 1404 1398 1390 1385 1382 1385 1380 1378 1370 1367 1369 1369 1375 1384 1393 1401 1412 1420 1431 1439 1444 1450 1457 1463 1470 1475 1481 1486 1491 1495 1499 1503 1506
1454 1459 1458 1442 1416 1402 1407 1416 1418 1410 1412 1408 1401 1388 1388 1377 1375 1383 1385 1382 1374 1370 1372 1379 1387 1395 1405 1413 1421 1429 1436 1442 1447 1452 1457 1463 1469 1474 1479 1483 1488 1492 1496 1499
1450 1455 1455 1437 1419 1416 1419 1412 1404 1399 1423 1418 1412 1404 1396 1382 1400 1406 1396 1386 1380 1375 1377 1383 1391 1399 1407 1414 1419 1427 1432 1438 1441 1446 1451 1458 1464 1469 1473 1478 1482 1487 1490 1493
1447 1448 1440 1438 1426 1419 1416 1407 1395 1418 1444 1431 1423 1417 1411 1404 1410 1409 1402 1395 1389 1384 1384 1389 1393 1400 1407 1412 1418 1424 1429 1433 1438 1444 1451 1456 1460 1464 1468 1473 1478 1481 1484 1487
1440 1440 1434 1429 1420 1423 1418 1407 1416 1434 1435 1433 1427 1422 1419 1419 1415 1411 1408 1403 1399 1394 1393 1395 1396 1401 1406 1409 1414 1420 1427 1432 1438 1442 1446 1451 1455 1459 1464 1467 1470 1474 1477 1478
1444 1447 1442 1442 1432 1428 1429 1432 1432 1429 1433 1431 1428 1425 1423 1421 1420 1418 1416 1413 1411 1407 1403 1403 1403 1406 1410 1413 1417 1421 1427 1432 1435 1437 1440 1445 1449 1452 1456 1458 1462 1465 1468 1470
1449 1446 1444 1441 1432 1432 1430 1431 1431 1431 1431 1432 1430 1428 1427 1425 1424 1422 1421 1421 1418 1414 1411 1410 1411 1411 1413 1417 1419 1422 1426 1432 1434 1434 1437 1441 1443 1445 1448 1451 1455 1458 1460 1463
1461 1456 1454 1446 1440 1429 1425 1428 1429 1426 1429 1429 1428 1429 1428 1427 1426 1425 1424 1424 1424 1423 1419 1415 1415 1416 1418 1421 1423 1424 1426 1429 1432 1434 1436 1438 1439 1440 1442 1444 1446 1448 1451 1454
1462 1459 1457 1450 1449 1446 1433 1426 1429 1424 1428 1427 1427 1426 1428 1428 1427 1426 1426 1426 1425 1424 1422 1420 1420 1420 1420 1422 1422 1424 1425 1426 1429 1431 1433 1434 1435 1436 1438 1439 1441 1443 1445 1446